Jefferson City, MO

10:48 PM CDT on July 23, 2017 (GMT -0500)
Jefferson City Memorial

Weather History for KJEF - September, 2012

Change the Weather History Date:

Saturday, September 1, 2012

  Actual Average Record
Temperature  
Mean Temperature 74 °F -  
Max Temperature 77 °F 87 °F 101 °F (1922)
Min Temperature 71 °F 62 °F 40 °F (1967)
Cooling Degree Days 9    
Growing Degree Days 24 (Base 50)    
Moisture  
Dew Point 71 °F    
Average Humidity 89    
Maximum Humidity 94    
Minimum Humidity 82    
Precipitation  
Precipitation 0.16 in - - ()
Sea Level Pressure  
Sea Level Pressure 29.77 in    
Wind  
Wind Speed 6 mph (ESE)    
Max Wind Speed 9 mph    
Max Gust Speed -    
Visibility 6 miles    
Events Rain    
Averages and records for this station are not official NWS values.
T = Trace of Precipitation, MM = Missing Value Source: NWS Daily Summary

Daily Weather History Graph

Daily Weather History Graph

Search for Another Location

Airport or City:

Trip Planner

Search our weather history database for the weather conditions in past years. The results will help you decide how hot, cold, wet, or windy it might be!

Date:

Astronomy

Sep. 01, 2012 Rise Set
Actual Time 6:38 AM CDT 7:37 PM CDT
Civil Twilight 6:11 AM CDT 8:04 PM CDT
Nautical Twilight 5:38 AM CDT 8:37 PM CDT
Astronomical Twilight 5:05 AM CDT 9:10 PM CDT
Moon 7:56 PM CDT (9/1) 7:44 AM CDT (9/1)
Length of Visible Light 13h 53m
Length of Day
12h 59m
Full, 99% of the Moon is Illuminated
Sep 1
Full
Sep 8
Last Quarter
Sep 15
New
Sep 22
First Quarter
Sep 29
Full

Hourly Weather History & Observations

Time (CDT) Temp. Dew Point Humidity Pressure Visibility Wind Dir Wind Speed Gust Speed Precip Events Conditions
1:03 AM 75.2 °F 71.6 °F 89% 29.78 in 6.0 mi ESE 6.9 mph - 0.00 in Rain Light Rain
1:16 AM 75.2 °F 71.6 °F 89% 29.78 in 4.0 mi ESE 9.2 mph - 0.01 in Rain Light Rain
1:24 AM 75.2 °F 71.6 °F 89% 29.78 in 2.0 mi ESE 8.1 mph - 0.02 in Rain Light Rain
1:29 AM 75.2 °F 71.6 °F 89% 29.78 in 3.0 mi ESE 8.1 mph - 0.02 in Rain Light Rain
1:53 AM 75.0 °F 72.0 °F 90% 29.74 in 5.0 mi SE 8.1 mph - 0.02 in   Overcast
2:49 AM 73.4 °F 71.6 °F 94% 29.77 in 6.0 mi SSE 6.9 mph - 0.01 in   Overcast
2:53 AM 73.9 °F 71.1 °F 91% 29.73 in 5.0 mi SSE 9.2 mph - 0.01 in Rain Light Rain
3:19 AM 73.4 °F 71.6 °F 94% 29.77 in 4.0 mi SSE 5.8 mph - 0.02 in Rain Light Rain
3:26 AM 73.4 °F 71.6 °F 94% 29.77 in 8.0 mi SSE 6.9 mph - 0.02 in Rain Light Rain
3:53 AM 73.9 °F 70.0 °F 87% 29.73 in 9.0 mi SSE 6.9 mph - 0.02 in   Overcast
4:11 AM 73.4 °F 69.8 °F 88% 29.77 in 10.0 mi SSE 8.1 mph - N/A   Overcast
4:53 AM 73.9 °F 70.0 °F 87% 29.73 in 10.0 mi SSE 5.8 mph - N/A   Overcast
5:33 AM 73.4 °F 69.8 °F 88% 29.78 in 3.0 mi SSE 4.6 mph - N/A   Overcast
5:50 AM 73.4 °F 69.8 °F 88% 29.78 in 7.0 mi ESE 4.6 mph - N/A   Overcast
5:53 AM 73.0 °F 69.1 °F 87% 29.74 in 9.0 mi SE 4.6 mph - N/A   Overcast
6:53 AM 73.0 °F 69.1 °F 87% 29.75 in 10.0 mi SSE 6.9 mph - N/A   Overcast
7:31 AM 71.6 °F 69.8 °F 94% 29.79 in 9.0 mi SE 6.9 mph - N/A   Overcast
7:53 AM 73.0 °F 69.1 °F 87% 29.75 in 10.0 mi SE 6.9 mph - N/A   Overcast
8:53 AM 73.0 °F 69.1 °F 87% 29.75 in 10.0 mi SE 4.6 mph - N/A   Overcast
9:07 AM 73.4 °F 69.8 °F 88% 29.79 in 7.0 mi SE 5.8 mph - N/A   Overcast
9:15 AM 73.4 °F 69.8 °F 88% 29.80 in 5.0 mi SE 5.8 mph - N/A   Overcast
9:53 AM 73.0 °F 70.0 °F 90% 29.76 in 5.0 mi ESE 5.8 mph - N/A   Overcast
10:25 AM 73.4 °F 69.8 °F 88% 29.80 in 3.0 mi SE 5.8 mph - 0.01 in   Overcast
11:45 AM 73.4 °F 69.8 °F 88% 29.80 in 10.0 mi ESE 6.9 mph - N/A   Overcast
11:53 AM 73.9 °F 70.0 °F 87% 29.76 in 9.0 mi ESE 5.8 mph - N/A   Overcast
12:24 PM 73.4 °F 69.8 °F 88% 29.80 in 2.0 mi ESE 5.8 mph - N/A   Overcast
12:36 PM 73.4 °F 71.6 °F 94% 29.79 in 1.8 mi East 4.6 mph - N/A   Overcast
12:53 PM 73.9 °F 71.1 °F 91% 29.75 in 1.8 mi ESE 4.6 mph - 0.01 in   Overcast
1:18 PM 73.4 °F 71.6 °F 94% 29.79 in 3.0 mi East 4.6 mph - N/A   Overcast
1:27 PM 75.2 °F 71.6 °F 89% 29.78 in 2.5 mi East 5.8 mph - N/A   Overcast
1:34 PM 75.2 °F 71.6 °F 89% 29.78 in 3.0 mi East 4.6 mph - N/A   Overcast
1:36 PM 75.2 °F 71.6 °F 89% 29.78 in 2.0 mi East 3.5 mph - N/A   Overcast
1:53 PM 75.0 °F 71.1 °F 87% 29.74 in 3.0 mi East 4.6 mph - N/A   Overcast
2:03 PM 75.2 °F 71.6 °F 89% 29.78 in 2.5 mi East 4.6 mph - N/A   Overcast
2:23 PM 75.2 °F 71.6 °F 89% 29.77 in 1.8 mi ENE 3.5 mph - 0.01 in Rain Light Rain
2:53 PM 75.0 °F 71.1 °F 87% 29.73 in 1.8 mi Calm Calm - 0.04 in Rain Light Rain
3:02 PM 75.2 °F 71.6 °F 89% 29.77 in 1.5 mi Calm Calm - 0.00 in Rain Light Rain
3:18 PM 75.2 °F 71.6 °F 89% 29.76 in 2.5 mi Calm Calm - 0.01 in Rain Light Rain
3:26 PM 75.2 °F 71.6 °F 89% 29.76 in 5.0 mi Calm Calm - 0.01 in   Haze
3:53 PM 77.0 °F 72.0 °F 84% 29.73 in 10.0 mi North 5.8 mph - 0.01 in   Overcast
4:21 PM 75.2 °F 71.6 °F 89% 29.76 in 5.0 mi NE 3.5 mph - 0.00 in Rain Light Rain
4:53 PM 77.0 °F 72.0 °F 84% 29.72 in 10.0 mi North 3.5 mph - 0.01 in   Overcast
5:23 PM 77.0 °F 71.6 °F 83% 29.76 in 10.0 mi NNW 4.6 mph - 0.00 in Rain Light Rain
5:35 PM 77.0 °F 71.6 °F 83% 29.76 in 10.0 mi NNW 5.8 mph - 0.00 in   Overcast
5:42 PM 77.0 °F 71.6 °F 83% 29.77 in 10.0 mi NNW 5.8 mph - 0.00 in   Overcast
5:53 PM 77.0 °F 71.1 °F 82% 29.73 in 10.0 mi NNW 6.9 mph - 0.00 in   Overcast
6:53 PM 77.0 °F 71.1 °F 82% 29.74 in 10.0 mi NW 6.9 mph - N/A   Mostly Cloudy
7:53 PM 75.9 °F 71.1 °F 85% 29.75 in 10.0 mi NW 4.6 mph - N/A   Overcast
8:48 PM 75.2 °F 71.6 °F 89% 29.81 in 10.0 mi WNW 5.8 mph - N/A   Overcast
8:53 PM 75.0 °F 72.0 °F 90% 29.77 in 10.0 mi WNW 6.9 mph - N/A   Overcast
9:53 PM 75.0 °F 72.0 °F 90% 29.78 in 4.0 mi WNW 5.8 mph - 0.00 in Rain Light Rain
10:09 PM 73.4 °F 71.6 °F 94% 29.82 in 4.0 mi WNW 5.8 mph - 0.01 in Rain Light Rain
10:53 PM 73.9 °F 71.1 °F 91% 29.78 in 4.0 mi WNW 6.9 mph - 0.03 in Rain Light Rain
11:53 PM 73.9 °F 71.1 °F 91% 29.79 in 7.0 mi WNW 5.8 mph - 0.01 in   Overcast